Weather History for Phuket, Thailand

Change the Weather History Date:

Sunday, November 3, 2013

  Actual Average Record
Temperature  
Mean Temperature 81 °F -  
Max Temperature 90 °F 88 °F 93 °F (1998)
Min Temperature 72 °F 75 °F 72 °F (2013)
Cooling Degree Days 16    
Growing Degree Days 31 (Base 50)    
Moisture  
Dew Point 73 °F    
Average Humidity 80    
Maximum Humidity 96    
Minimum Humidity 52    
Precipitation  
Precipitation 0.20 in 0.23 in - ()
Sea Level Pressure  
Sea Level Pressure 29.84 in    
Wind  
Wind Speed 2 mph ()    
Max Wind Speed 14 mph    
Max Gust Speed -    
Visibility 5.4 miles    
Events Rain , Thunderstorm    
Averages and records for this station are not official NWS values.
T = Trace of Precipitation, MM = Missing Value Source: Averaged Metar Reports

Daily Weather History Graph

Daily Weather History Graph

Search for Another Location

Airport:

Trip Planner

Search our weather history database for the weather conditions in past years. The results will help you decide how hot, cold, wet, or windy it might be!

Date:

Astronomy

Nov. 03, 2013 Rise Set
Actual Time 6:15 AM ICT 6:04 PM ICT
Civil Twilight 5:53 AM ICT 6:26 PM ICT
Nautical Twilight 5:28 AM ICT 6:51 PM ICT
Astronomical Twilight 5:04 AM ICT 7:16 PM ICT
Moon 5:48 AM ICT (11/3) 5:57 PM ICT (11/3)
Length of Visible Light 12h 32m
Length of Day
11h 49m
Waning Crescent, 0% of the Moon is Illuminated
Nov 3
Waning Crescent
Nov 3
New
Nov 10
First Quarter
Nov 17
Full
Nov 26
Last Quarter

Hourly Weather History & Observations

Time (ICT) Temp. Heat Index Dew Point Humidity Pressure Visibility Wind Dir Wind Speed Gust Speed Precip Events Conditions
12:00 AM 75.2 °F - 73.4 °F 94% 29.89 in 5.0 mi Calm Calm - N/A   Scattered Clouds
12:30 AM 75.2 °F - 73.4 °F 94% 29.89 in 5.0 mi Calm Calm - N/A   Scattered Clouds
1:00 AM 77 °F - 76 °F 95% 29.83 in 6 mi Calm Calm - -   Partly Cloudy
1:00 AM 75.2 °F - 73.4 °F 94% 29.86 in 5.0 mi Calm Calm - N/A   Scattered Clouds
1:30 AM 75.2 °F - 73.4 °F 94% 29.86 in 5.0 mi Calm Calm - N/A   Scattered Clouds
2:00 AM 75.2 °F - 73.4 °F 94% 29.83 in 5.0 mi Calm Calm - N/A   Scattered Clouds
2:30 AM 75.2 °F - 73.4 °F 94% 29.83 in 5.0 mi Calm Calm - N/A   Scattered Clouds
3:00 AM 75.2 °F - 73.4 °F 94% 29.83 in 5.0 mi Calm Calm - N/A   Scattered Clouds
3:30 AM 75.2 °F - 73.4 °F 94% 29.83 in 5.0 mi Calm Calm - N/A   Scattered Clouds
4:00 AM 75.2 °F - 73.4 °F 94% 29.83 in 5.0 mi Calm Calm - N/A   Scattered Clouds
4:30 AM 75.2 °F - 73.4 °F 94% 29.80 in 5.0 mi Calm Calm - N/A   Scattered Clouds
5:00 AM 75.2 °F - 73.4 °F 94% 29.83 in 5.0 mi Calm Calm - N/A   Scattered Clouds
5:30 AM 75.2 °F - 73.4 °F 94% 29.83 in 5.0 mi Calm Calm - N/A   Scattered Clouds
6:30 AM 75.2 °F - 73.4 °F 94% 29.83 in 5.6 mi SSE 2.3 mph - N/A   Scattered Clouds
7:00 AM 76 °F - 75 °F 96% 29.81 in 6 mi Calm Calm - -   Scattered Clouds
7:00 AM 75.2 °F - 73.4 °F 94% 29.86 in 6.2 mi Variable 1.2 mph - N/A   Mostly Cloudy
7:30 AM 78.8 °F - 75.2 °F 89% 29.86 in 6.2 mi Calm Calm - N/A   Scattered Clouds
8:00 AM 82.4 °F 88.2 °F 73.4 °F 74% 29.89 in 6.2 mi Calm Calm - N/A   Scattered Clouds
9:30 AM 86.0 °F 93.4 °F 73.4 °F 66% 29.89 in 6.2 mi East 11.5 mph - N/A   Scattered Clouds
10:30 AM 86.0 °F 95.1 °F 75.2 °F 70% 29.89 in 6.2 mi East 6.9 mph - N/A   Scattered Clouds
11:00 AM 86.0 °F 93.4 °F 73.4 °F 66% 29.89 in 6.2 mi ESE 9.2 mph - N/A   Scattered Clouds
11:30 AM 86.0 °F 93.4 °F 73.4 °F 66% 29.86 in 6.2 mi East 10.4 mph - N/A   Scattered Clouds
12:00 PM 87.8 °F 93.8 °F 71.6 °F 58% 29.86 in 6.2 mi ESE 8.1 mph - N/A   Scattered Clouds
12:30 PM 87.8 °F 92.6 °F 69.8 °F 55% 29.83 in 6.2 mi East 6.9 mph - N/A   Scattered Clouds
1:00 PM 89 °F - 74 °F 52% 29.81 in 6 mi East 4.6 mph - -   Scattered Clouds
1:00 PM 89.6 °F 96.2 °F 71.6 °F 55% 29.80 in 6.2 mi East 12.7 mph - N/A   Scattered Clouds
1:30 PM 89.6 °F 96.2 °F 71.6 °F 55% 29.80 in 6.2 mi ESE 6.9 mph - N/A   Scattered Clouds
2:00 PM 89.6 °F 94.7 °F 69.8 °F 52% 29.77 in 6.2 mi ESE 13.8 mph - N/A   Scattered Clouds
2:30 PM 89.6 °F 96.2 °F 71.6 °F 55% 29.77 in 6.2 mi East 9.2 mph - N/A   Scattered Clouds
3:00 PM 89.6 °F 94.7 °F 69.8 °F 52% 29.77 in 6.2 mi East 9.2 mph - N/A   Scattered Clouds
3:30 PM 89.6 °F 94.7 °F 69.8 °F 52% 29.74 in 6.2 mi Variable 2.3 mph - N/A   Scattered Clouds
4:00 PM 87.8 °F 97.6 °F 75.2 °F 66% 29.74 in 6.2 mi WSW 11.5 mph - N/A   Scattered Clouds
4:30 PM 86.0 °F 95.1 °F 75.2 °F 70% 29.77 in 6.2 mi WNW 12.7 mph - N/A   Mostly Cloudy
5:00 PM 86.0 °F 93.4 °F 73.4 °F 66% 29.77 in 6.2 mi West 11.5 mph - N/A   Mostly Cloudy
5:30 PM 84.2 °F 90.9 °F 73.4 °F 70% 29.80 in 5.6 mi WNW 9.2 mph - N/A   Mostly Cloudy
6:00 PM 75.2 °F - 71.6 °F 89% 29.80 in 1.6 mi West 8.1 mph - N/A Rain Rain
6:30 PM 77.0 °F - 71.6 °F 83% 29.83 in 4.3 mi Variable 2.3 mph - N/A Thunderstorm Thunderstorm
7:00 PM 78 °F - 74 °F 84% 29.79 in 6 mi Calm Calm - - Thunderstorm Thunderstorm
7:00 PM 77.0 °F - 73.4 °F 89% 29.83 in 4.3 mi Calm Calm - N/A   Mostly Cloudy
7:30 PM 77.0 °F - 73.4 °F 89% 29.86 in 4.3 mi Calm Calm - N/A   Mostly Cloudy
8:00 PM 77.0 °F - 73.4 °F 89% 29.86 in 5.0 mi SE 2.3 mph - N/A   Mostly Cloudy
8:30 PM 77.0 °F - 73.4 °F 89% 29.86 in 5.0 mi ESE 3.5 mph - N/A   Mostly Cloudy
9:00 PM 77.0 °F - 73.4 °F 89% 29.89 in 5.0 mi Calm Calm - N/A   Mostly Cloudy
9:30 PM 77.0 °F - 73.4 °F 89% 29.89 in 5.0 mi Calm Calm - N/A   Mostly Cloudy
10:00 PM 77.0 °F - 73.4 °F 89% 29.89 in 5.0 mi Calm Calm - N/A   Mostly Cloudy
10:30 PM 75.2 °F - 73.4 °F 94% 29.89 in 5.0 mi Calm Calm - N/A   Mostly Cloudy
11:00 PM 77.0 °F - 73.4 °F 89% 29.89 in 5.0 mi Calm Calm - N/A   Mostly Cloudy
11:30 PM 75.2 °F - 73.4 °F 94% 29.89 in 5.0 mi Calm Calm - N/A   Mostly Cloudy